BEIDOU 3

Last updated on Nov. 19, 2019, 4:25 a.m. UTC

1 36287U 10001A   19322.81893059 -.00000279  00000-0  00000+0 0  9996
2 36287   1.3680   9.5534 0003563 165.3619 317.5733  1.00272691 36084
UTC
Height (km)
Latitude
Longitude
Inclination
Orbital Period
UTC large
Height (km)
Speed (km/s)
/
Latitude / Longitude
Inclination (degrees)
Orbital Period (minutes)
Azimuth
Elevation
Range (km)
Doppler Factor
iOS Compass Heading
iOS Angle

Next 30 passes for location: Hong Kong

Rise time Rise Azimuth (degrees) Set time Set Azimuth (degrees) Duration Max altitude (degrees)

No matching passes for this satellites